Lapse_Rate
5.1 5.6 6.1 5.8 5.7 5.8 5.9 5.3 5.2 5.3 5.3 5.3 5.4 5.3 5.1 5.2 4.9 5.5 6.7 6.5 6.4 6.1 6.3 6.4 6.8 6.8 6.8 6.5 6.5 6.3 6.7 6.7 7.1
4.2 4.6 5.2 5.5 5.6 5.7 5.9 5.4 4.9 4.9 5.2 5.5 5.4 5.4 5.3 5.0 5.0 5.4 6.0 6.6 6.5 5.8 5.6 5.6 5.5 6.7 7.1 6.4 6.5 6.7 6.5 6.4 6.3
3.3 4.0 4.9 5.2 5.7 5.7 5.5 5.3 4.8 4.8 5.3 5.4 5.3 5.6 5.4 4.9 5.0 5.2 5.7 6.3 5.7 5.5 5.3 5.2 5.2 5.1 5.3 5.3 5.4 5.7 6.0 6.1 6.6
2.9 3.5 4.5 5.2 5.5 5.4 5.3 5.0 5.0 5.2 5.5 5.6 5.6 5.6 5.6 4.8 4.6 4.8 5.3 5.9 5.5 5.2 5.1 4.7 4.6 4.6 4.7 4.8 5.0 5.1 5.2 5.2 5.3
2.8 3.1 4.4 5.0 5.2 5.1 4.8 4.9 4.9 5.0 5.4 5.8 5.5 5.2 5.1 4.5 4.5 4.6 5.4 5.9 5.5 5.1 4.8 4.5 4.3 4.3 4.4 4.4 4.6 4.6 4.8 5.0 5.0
2.8 3.7 4.6 5.0 4.9 4.9 4.7 4.7 4.7 4.5 4.9 5.3 5.1 4.7 4.3 4.3 4.4 4.5 5.9 6.1 5.5 5.1 4.8 4.5 4.4 4.3 4.3 4.3 4.4 4.4 4.5 4.9 4.8
2.3 2.8 3.8 4.9 4.7 4.9 4.7 4.7 4.6 4.0 3.5 3.6 4.0 4.3 4.1 4.2 4.4 4.9 6.1 6.4 5.8 5.0 4.7 4.4 4.2 4.0 4.0 4.1 4.2 4.4 4.4 4.7 4.7
1.6 1.9 2.3 3.0 3.2 3.0 3.3 3.5 3.2 2.9 2.7 3.0 2.7 3.5 3.9 3.8 4.2 4.9 6.1 6.7 6.0 5.2 4.8 4.5 4.3 4.0 4.0 4.2 4.2 4.1 4.1 4.2 4.2
0.5 0.9 1.7 1.7 2.2 1.9 2.2 2.3 2.4 1.9 2.0 2.3 2.5 2.9 3.7 3.9 4.2 4.8 5.5 6.3 6.6 5.8 5.2 4.8 4.6 4.1 3.9 4.1 4.2 4.1 4.1 4.0 4.3
0.8 0.8 1.0 1.3 1.6 1.2 1.1 1.5 1.4 1.2 1.5 2.1 2.1 2.4 3.2 3.8 3.8 4.4 5.3 5.8 6.4 6.0 5.7 5.0 4.8 4.5 4.1 4.0 4.1 4.1 4.1 4.1 4.1
0.8 0.7 0.7 1.0 1.4 1.5 1.3 1.0 1.0 1.0 1.4 1.7 2.4 2.8 3.2 3.5 3.3 4.2 4.9 5.5 6.1 6.1 6.0 5.7 5.2 5.0 4.7 4.2 4.3 4.3 4.0 3.9 3.9
1.8 1.1 0.5 1.2 1.9 1.9 1.3 1.1 1.2 0.8 1.4 0.9 2.4 2.9 3.0 3.1 3.0 3.8 4.4 5.1 5.6 5.8 6.4 6.4 6.1 5.7 5.5 5.1 4.6 4.7 4.6 4.3 4.2
1.9 1.3 1.1 2.0 1.8 1.7 1.0 0.7 0.9 0.9 1.1 1.4 1.7 2.5 3.0 3.1 3.2 3.6 3.9 4.2 4.8 5.3 5.8 6.5 6.6 6.5 6.1 6.1 5.4 4.7 4.8 4.8 4.7
2.2 1.8 1.9 2.3 1.4 0.9 1.2 1.0 1.3 1.5 1.5 1.7 1.8 1.7 1.6 2.4 3.4 2.7 2.9 3.5 3.9 4.3 5.1 5.7 6.2 6.5 6.7 6.9 8.2 7.7 5.9 5.3 5.7
2.6 2.0 1.9 2.2 0.9 0.7 0.7 1.4 0.9 1.6 1.9 3.2 3.2 1.9 1.4 1.8 1.5 1.9 2.9 3.0 3.2 3.8 4.1 4.9 5.4 6.2 6.5 7.4 8.6 9.1 8.9 7.8 6.4
2.9 2.3 1.8 2.0 1.9 2.1 2.0 1.7 2.1 1.4 1.4 2.8 2.0 1.6 1.2 1.1 0.7 1.6 1.4 1.6 2.4 2.9 3.2 3.8 4.3 5.2 6.1 6.7 8.0 9.2 9.1 8.9 8.0
2.8 2.2 2.0 1.8 2.1 2.1 1.8 2.2 2.2 2.1 0.9 3.7 3.4 4.7 4.3 1.8 1.0 -0.1 0.8 0.4 1.8 2.0 2.7 3.3 3.7 4.2 5.3 6.2 7.8 8.6 9.3 8.7 8.3
2.7 2.3 1.9 1.7 2.2 2.8 2.4 2.3 2.5 4.0 1.3 1.4 4.5 4.0 3.6 1.3 0.8 -0.0 -0.3 0.2 -0.5 0.9 2.2 2.9 3.5 3.7 3.6 4.5 5.2 6.2 7.5 8.9 8.4
2.8 2.7 2.4 1.9 1.7 2.4 2.3 2.0 2.7 3.4 4.6 1.6 2.5 2.4 3.3 4.9 4.5 1.5 0.2 -0.5 0.5 0.8 0.8 1.2 1.1 1.7 2.3 3.4 3.9 4.7 3.8 4.9 3.9
2.8 3.1 2.4 1.9 1.6 2.0 2.2 2.3 3.3 3.1 4.3 3.0 2.3 2.3 1.9 2.3 3.3 6.1 3.9 0.9 -0.9 -0.4 0.1 1.0 0.4 0.5 0.6 2.4 3.0 4.2 4.1 5.7 6.4
Wind_Speed
11 11 16 17 14 12 11 13 13 12 11 10 10 11 11 12 12 11 10 14 12 9 9 9 12 16 12 10 13 16 12 9 9
11 11 15 16 15 12 11 11 11 10 9 9 9 11 10 11 11 11 11 10 9 9 9 8 7 7 12 12 13 14 15 13 13
9 12 15 15 14 12 10 10 9 7 6 8 8 11 9 9 10 10 10 10 10 8 9 9 8 7 6 7 9 8 9 9 10
9 13 13 15 13 11 9 7 6 5 4 5 6 7 8 8 9 10 10 8 7 7 7 8 7 7 7 8 8 8 8 7 7
9 11 14 14 12 11 8 6 4 3 2 3 4 4 7 7 6 8 8 7 7 6 6 6 6 6 6 6 7 8 8 8 8
5 11 16 14 11 10 6 4 3 2 2 2 2 5 6 5 5 5 8 6 6 6 5 5 5 5 5 5 6 6 6 6 7
10 13 14 12 10 9 6 3 3 3 3 2 2 2 2 4 7 7 8 6 6 5 5 5 5 5 4 4 5 6 6 6 7
7 8 9 10 10 8 7 6 5 4 5 5 1 2 3 5 8 9 9 7 7 6 6 5 5 5 5 4 4 5 6 6 7
8 8 9 9 10 8 7 6 6 6 7 6 5 4 5 5 9 11 11 10 8 7 6 6 5 6 5 5 4 4 5 5 5
10 10 11 11 12 10 8 8 7 7 8 9 8 5 7 8 13 13 14 12 11 10 9 8 7 7 6 5 5 5 5 5 5
10 8 8 9 13 14 11 8 7 7 7 8 10 11 10 10 13 15 15 16 14 13 11 10 9 8 8 7 6 6 6 6 5
11 7 6 11 15 13 10 7 6 4 5 5 8 10 11 11 13 16 17 17 17 15 13 12 11 10 9 9 7 7 6 5 5
12 7 7 14 13 11 5 3 4 4 4 3 4 6 7 10 13 15 17 18 18 18 16 14 14 13 12 12 11 9 8 7 5
13 10 11 14 10 7 4 4 3 3 4 5 4 4 4 8 10 13 16 19 19 20 21 18 16 15 15 14 13 12 10 8 6
15 10 11 12 4 4 3 5 4 4 4 4 4 4 3 7 6 9 13 17 18 21 20 19 18 18 17 16 15 13 11 9 8
14 10 8 9 7 7 7 4 6 4 3 1 2 3 5 6 5 8 8 10 16 18 19 19 18 18 19 18 17 15 12 9 7
10 8 7 6 5 5 6 5 3 3 5 3 1 3 3 3 6 4 5 5 7 10 15 17 17 18 17 14 12 10 13 9 5
13 10 7 5 5 6 6 6 7 6 3 4 3 1 4 2 2 2 2 3 2 5 8 11 9 6 3 5 6 6 0 4 3
9 9 9 6 4 6 6 4 6 4 7 2 5 3 3 3 3 1 2 4 6 6 7 9 11 13 13 13 10 12 17 18 18
11 11 8 5 4 4 5 4 5 5 5 5 2 4 3 2 4 7 3 2 3 4 4 1 5 8 13 14 15 17 17 16 13
Wind_Direction
138 133 138 133 130 127 125 121 123 118 108 92 97 104 108 114 113 110 85 85 78 70 68 71 59 71 95 89 72 71 112 104 103
149 145 146 142 139 141 137 131 125 121 115 100 104 118 120 111 106 102 91 86 83 77 78 74 71 66 68 65 69 73 78 81 85
153 160 151 148 150 149 147 135 129 127 118 102 107 134 125 116 114 107 101 94 91 85 84 82 77 78 69 67 63 59 58 65 69
149 158 158 155 157 155 152 136 134 133 122 107 106 140 139 126 129 125 116 108 102 99 93 89 87 82 81 79 82 83 86 87 87
166 158 168 154 155 154 154 152 152 148 138 125 110 123 142 139 144 140 130 122 118 114 107 99 98 92 85 85 88 89 90 94 94
162 178 157 155 158 151 159 171 184 201 206 160 105 118 149 154 165 166 151 138 131 132 120 112 107 97 91 93 93 97 99 102 100
148 163 156 159 162 157 166 188 222 241 265 266 134 168 180 229 195 195 179 159 155 151 150 145 142 130 121 116 111 109 109 109 104
156 156 163 172 178 174 182 193 207 234 265 274 200 228 255 210 197 206 203 189 178 177 174 170 167 153 143 147 140 131 128 125 126
182 187 193 190 189 192 197 206 226 243 248 251 262 235 245 232 216 214 215 210 196 194 194 194 191 182 176 172 164 154 147 139 137
190 203 202 204 201 205 206 211 225 243 251 251 254 243 242 250 234 222 219 221 206 200 203 204 206 204 200 198 190 180 168 162 153
190 199 207 211 210 214 215 211 219 239 244 257 257 263 259 249 229 224 223 223 216 207 211 213 215 216 217 213 207 206 190 181 169
193 195 205 218 218 219 222 233 231 239 244 256 264 268 259 248 229 223 224 225 224 214 221 223 223 224 224 221 223 220 213 199 184
195 193 207 217 214 210 203 201 227 237 221 248 257 263 256 242 231 225 226 226 225 222 222 226 225 225 225 225 219 222 220 214 206
195 201 213 210 202 198 203 214 196 223 238 239 244 231 237 234 228 228 230 228 223 221 223 224 223 222 226 232 226 221 224 224 225
199 203 208 202 192 205 191 205 207 212 228 239 251 251 241 248 232 232 233 232 227 224 225 227 228 224 221 233 238 230 223 231 234
201 207 200 197 205 211 204 189 206 234 193 131 305 285 245 243 239 238 235 232 227 227 225 226 228 227 222 223 236 238 224 215 237
198 203 206 196 201 203 197 184 195 225 180 182 102 292 299 266 239 222 234 241 232 231 227 225 225 225 222 218 233 258 249 217 234
213 213 204 197 195 217 207 196 199 236 217 195 193 295 235 343 343 354 244 251 234 253 247 239 232 215 154 160 182 166 98 250 276
215 216 209 209 193 210 216 214 223 195 242 173 225 199 170 237 308 283 229 207 209 208 214 208 183 179 173 176 180 179 177 184 175
217 216 208 205 191 218 212 204 197 207 229 212 229 220 194 194 236 280 262 349 12 13 359 299 181 187 186 185 184 190 185 210 215